Regional Weather Roundup
Issued by NWS New Orleans/Baton Rouge, LA

Home | Current Version | Previous Version | Text Only | Print | Product List | Glossary On
Versions: 1 2 3 4 5 6 7 8 9 10 11 12 13 14 15 16 17 18 19 20 21 22 23 24 25 26 27 28 29 30 31 32 33 34 35 36 37 38 39 40 41 42 43 44 45 46 47 48 49 50
472
ASUS44 KLIX 160105
RWRLIX
NEW ORLEANS REGIONAL WEATHER ROUNDUP
NATIONAL WEATHER SERVICE NEW ORLEANS LA
800 PM CDT TUE APR 15 2014

NOTE: "FAIR" INDICATES FEW OR NO CLOUDS BELOW 12,000 FEET WITH NO
      SIGNIFICANT WEATHER AND/OR OBSTRUCTIONS TO VISIBILITY.
      SKY/WX - SKY CONDITION AND SIGNIFICANT WEATHER.
      TMP - AIR TEMPERATURE.     DP    - DEWPOINT TEMPERATURE.
      RH  - RELATIVE HUMIDITY.   PRES  - PRESSURE.
      HI  - HEAT INDEX.          WCI   - WIND CHILL INDEX.

*  THESE STATIONS ARE NOT NWS OR FAA STATIONS AND ARE NOT UNDER
   NWS QUALITY CONTROL.

LAZ038-040-048-061>063-065>067-069-160200-
SOUTHEAST LOUISIANA

CITY           SKY/WX    TMP DP  RH WIND       PRES   REMARKS
N.O. AUDUBON   NOT AVBL
N.O. INTL ARPT MOCLDY    56  29  35 N14       30.14R
N.O. LAKEFRONT PTCLDY    57  33  40 N20       30.14R
N.O. DOWNTOWN*   N/A     57  28  33 N9        30.14R
SLIDELL        PTCLDY    53  30  41 N6        30.14R
BATON ROUGE    CLEAR     53  30  41 N5        30.17R
BOOTHVILLE     PTCLDY    58  34  40 N13G23    30.11R
BELLE CHASSE   MOCLDY    56  30  37 N7        30.12R
BOGALUSA*        N/A     50  34  54 N6        30.17R
GALLIANO*      PTCLDY    56  34  43 NW8       30.13R
NEW ROADS*       N/A     52  31  44 N7        30.19R
GONZALES*        N/A     53  30  41 N8        30.15R
HAMMOND*       PTCLDY    50  32  50 N7        30.17R
HOUMA*           N/A     55  30  38 N8        30.13R
PORT FOURCHON* CLEAR     57  34  41 N13G21    30.14R

$$

MSZ070-080>082-160200-
SOUTHERN MISSISSIPPI

CITY           SKY/WX    TMP DP  RH WIND       PRES   REMARKS
MCCOMB         CLEAR     49  30  48 N8        30.17R
GULFPORT       PTCLDY    56  30  37 N8        30.12R
BILOXI         MOCLDY    55  32  42 N10       30.12R
PASCAGOULA     MOCLDY    52  36  54 CALM      30.12R
STENNIS ARPT*  CLEAR     52  34  50 N6        30.13R

$$

COASTAL OBSERVATIONS
LAKE AND NEARSHORE STATIONS

STATION/POSITION TIME  TEMP    WIND        PRES    WAVE
                       AIR SEA DIR/SP/G            HT/PER
                 (UTC) (F)     (DEG/KT/KT) (MB)    (FT/S)
PASCAGOULA       0100   55     350/  7/  8 1018.9
WAVELAND YACHT   0100   57 69  350/ 14/ 17 1019.1
GRAND ISLE       0100   59 68  360/ 14/ 20 1020.2
SOUTHWEST PASS   0100   60 59  360/ 18/ 21 1019.1
NEW CANAL        0100   58 65  360/ 15/ 19 1020.7
SHELL BEACH      0100   58 64  350/ 17/ 22 1019.8

OFFSHORE STATIONS

STATION/POSITION TIME  TEMP    WIND        PRES    WAVE
                       AIR SEA DIR/SP/G            HT/PER
                 (UTC) (F)     (DEG/KT/KT) (MB)    (FT/S)

$$




USA.gov is the U.S. government's official web portal to all federal, state and local government web resources and services.